Topeka Forbes, KS

3:50 PM CST on December 06, 2019 (GMT -0600)
Forbes

Weather History for KFOE - October, 2019

Change the Weather History Date:

Monday, October 21, 2019

  Actual Average Record
Temperature  
Mean Temperature 51 °F -  
Max Temperature 59 °F 69 °F 88 °F (1978)
Min Temperature 43 °F 42 °F 24 °F (1987)
Degree Days  
Heating Degree Days 14    
Growing Degree Days 1 (Base 50)    
Moisture  
Dew Point 38 °F    
Average Humidity 62    
Maximum Humidity 89    
Minimum Humidity 45    
Precipitation  
Precipitation 0.00 in - - ()
Sea Level Pressure  
Sea Level Pressure 29.63 in    
Wind  
Wind Speed 13 mph (West)    
Max Wind Speed 30 mph    
Max Gust Speed 44 mph    
Visibility 10 miles    
Events      
Averages and records for this station are not official NWS values.
T = Trace of Precipitation, MM = Missing Value Source: NWS Daily Summary

Daily Weather History Graph

Daily Weather History Graph

Search for Another Location

Airport or City:

Astronomy

Oct. 21, 2019 Rise Set
Actual Time 7:38 AM CDT 6:35 PM CDT
Civil Twilight 7:10 AM CDT 7:03 PM CDT
Nautical Twilight 6:39 AM CDT 7:34 PM CDT
Astronomical Twilight 6:08 AM CDT 8:04 PM CDT
Moon No Moon Rise 2:55 PM CDT (10/21)
Length of Visible Light 11h 52m
Length of Day
10h 57m
Waning Gibbous, 48% of the Moon is Illuminated
Oct 21
Waning Gibbous
Oct 27
New
Nov 4
First Quarter
Nov 12
Full
Nov 19
Last Quarter

Hourly Weather History & Observations

Time (CDT) Temp. Windchill Dew Point Humidity Pressure Visibility Wind Dir Wind Speed Gust Speed Precip Events Conditions
12:53 AM 51.1 °F - 48.0 °F 89% 29.53 in 10.0 mi Calm Calm - 0.00 in   Scattered Clouds
1:53 AM 51.1 °F - 48.0 °F 89% 29.55 in 10.0 mi SW 4.6 mph - N/A   Mostly Cloudy
2:53 AM 48.9 °F - 45.0 °F 86% 29.53 in 10.0 mi WSW 9.2 mph - N/A   Clear
3:53 AM 48.0 °F - 39.0 °F 71% 29.54 in 10.0 mi SW 11.5 mph - N/A   Clear
4:53 AM 45.0 °F 39.3 °F 37.9 °F 76% 29.54 in 10.0 mi WSW 11.5 mph - N/A   Clear
5:53 AM 45.0 °F 37.9 °F 37.0 °F 74% 29.54 in 10.0 mi West 16.1 mph - N/A   Clear
6:53 AM 45.0 °F 38.5 °F 36.0 °F 71% 29.54 in 10.0 mi West 13.8 mph - N/A   Clear
7:53 AM 43.0 °F 36.4 °F 36.0 °F 76% 29.55 in 10.0 mi WSW 12.7 mph - N/A   Clear
8:53 AM 46.0 °F 39.9 °F 37.0 °F 71% 29.56 in 10.0 mi WSW 13.8 mph - N/A   Clear
9:53 AM 51.1 °F - 37.9 °F 61% 29.55 in 10.0 mi WSW 18.4 mph 28.8 mph N/A   Clear
10:53 AM 55.0 °F - 37.9 °F 53% 29.56 in 10.0 mi West 25.3 mph 36.8 mph N/A   Overcast
11:53 AM 55.0 °F - 36.0 °F 49% 29.58 in 10.0 mi West 21.9 mph 38.0 mph N/A   Overcast
12:53 PM 55.0 °F - 36.0 °F 49% 29.61 in 10.0 mi West 24.2 mph 38.0 mph N/A   Overcast
1:53 PM 54.0 °F - 35.1 °F 49% 29.62 in 10.0 mi West 26.5 mph 36.8 mph N/A   Overcast
2:53 PM 57.0 °F - 37.9 °F 49% 29.63 in 10.0 mi West 25.3 mph 39.1 mph N/A   Mostly Cloudy
3:53 PM 59.0 °F - 39.0 °F 48% 29.65 in 10.0 mi West 25.3 mph 39.1 mph N/A   Overcast
4:53 PM 57.0 °F - 36.0 °F 45% 29.68 in 10.0 mi West 23.0 mph 33.4 mph N/A   Mostly Cloudy
5:53 PM 55.0 °F - 35.1 °F 47% 29.71 in 10.0 mi West 25.3 mph 36.8 mph N/A   Mostly Cloudy
6:53 PM 53.1 °F - 35.1 °F 50% 29.75 in 10.0 mi West 29.9 mph 43.7 mph N/A   Overcast
7:53 PM 53.1 °F - 37.0 °F 55% 29.80 in 10.0 mi WNW 18.4 mph 32.2 mph N/A   Overcast
8:53 PM 52.0 °F - 36.0 °F 54% 29.81 in 10.0 mi WNW 18.4 mph 29.9 mph N/A   Overcast
10:53 PM 48.0 °F - 36.0 °F 63% 29.88 in 10.0 mi West 16.1 mph - N/A   Clear
11:53 PM 48.0 °F - 35.1 °F 61% 29.89 in 10.0 mi WNW 17.3 mph 29.9 mph N/A   Clear